Change the Weather History Date:

Saturday, August 10, 2013

  Actual Average Record
Temperature  
Mean Temperature 62 °F 71 °F  
Max Temperature 75 °F 83 °F 98 °F (1988)
Min Temperature 49 °F 59 °F 41 °F (1967)
Degree Days  
Heating Degree Days 3 1  
Month to date heating degree days 11 6  
Since 1 June heating degree days 90 95  
Since 1 July heating degree days 28 22  
Cooling Degree Days 0 6  
Month to date cooling degree days 7 66  
Year to date cooling degree days 415 406  
Since 1 June cooling degree days 386 375  
Growing Degree Days 12 (Base 50)    
Moisture  
Dew Point 51 °F    
Average Humidity 69    
Maximum Humidity 93    
Minimum Humidity 44    
Precipitation  
Precipitation 0.00 in 0.07 in 2.78 in (1974)
Month to date precipitation 0.25 0.71  
Year to date precipitation 21.78 14.21  
Snow  
Snow 0.00 in 0.00 in 0.00 in ()
Month to date snowfall 0.0 0.0  
Since 1 June snowfall 0.0 0.0  
Since 1 July snowfall 0.0 0.0  
Snow Depth 0.00 in    
Sea Level Pressure  
Sea Level Pressure 30.15 in    
Wind  
Wind Speed 3 mph (WNW)    
Max Wind Speed 12 mph    
Max Gust Speed 15 mph    
Visibility 10 miles    
Events      
T = Trace of Precipitation, MM = Missing Value Source: NWS Daily Summary

Daily Weather History Graph

Daily Weather History Graph

Search for Another Location

Airport or City:

Trip Planner

Search our weather history database for the weather conditions in past years. The results will help you decide how hot, cold, wet, or windy it might be!

Date:

Astronomy

Aug. 10, 2013 Rise Set
Actual Time 6:18 AM CDT 8:45 PM CDT
Civil Twilight 5:44 AM CDT 9:19 PM CDT
Nautical Twilight 5:01 AM CDT 10:01 PM CDT
Astronomical Twilight 4:12 AM CDT 10:50 PM CDT
Moon 10:25 AM CDT (8/10) 10:07 PM CDT (8/10)
Length of Visible Light 15h 34m
Length of Day
14h 27m
Waxing Crescent, 14% of the Moon is Illuminated
Aug 10
Waxing Crescent
Aug 14
First Quarter
Aug 20
Full
Aug 28
Last Quarter
Sep 5
New

Hourly Weather History & Observations

Time (CDT) Temp. Dew Point Humidity Pressure Visibility Wind Dir Wind Speed Gust Speed Precip Events Conditions
12:53 AM 61.0 °F 54.0 °F 78% 30.16 in 10.0 mi Calm Calm - N/A   Overcast
1:53 AM 59.0 °F 52.0 °F 78% 30.17 in 10.0 mi North 5.8 mph - N/A   Mostly Cloudy
2:53 AM 55.0 °F 51.1 °F 86% 30.18 in 10.0 mi NNW 5.8 mph - N/A   Clear
3:53 AM 52.0 °F 48.9 °F 89% 30.19 in 10.0 mi NNW 5.8 mph - N/A   Clear
4:53 AM 50.0 °F 46.9 °F 89% 30.19 in 10.0 mi Calm Calm - N/A   Clear
5:53 AM 48.9 °F 46.0 °F 90% 30.20 in 10.0 mi Calm Calm - N/A   Mostly Cloudy
6:53 AM 50.0 °F 46.9 °F 89% 30.21 in 10.0 mi Calm Calm - N/A   Partly Cloudy
7:53 AM 55.0 °F 51.1 °F 86% 30.21 in 10.0 mi Calm Calm - N/A   Mostly Cloudy
8:53 AM 59.0 °F 53.1 °F 81% 30.21 in 10.0 mi Calm Calm - N/A   Overcast
9:53 AM 61.0 °F 53.1 °F 75% 30.21 in 10.0 mi Calm Calm - N/A   Overcast
10:53 AM 66.0 °F 52.0 °F 60% 30.19 in 10.0 mi Calm Calm - N/A   Overcast
11:53 AM 66.0 °F 48.9 °F 54% 30.19 in 10.0 mi Calm Calm - N/A   Mostly Cloudy
12:53 PM 68.0 °F 50.0 °F 52% 30.18 in 10.0 mi Variable 5.8 mph - N/A   Overcast
1:53 PM 69.1 °F 50.0 °F 51% 30.17 in 10.0 mi Calm Calm - N/A   Scattered Clouds
2:53 PM 70.0 °F 50.0 °F 49% 30.15 in 10.0 mi Calm Calm - N/A   Partly Cloudy
3:53 PM 73.0 °F 50.0 °F 44% 30.13 in 10.0 mi Variable 3.5 mph - N/A   Clear
4:53 PM 73.0 °F 52.0 °F 48% 30.12 in 10.0 mi SW 5.8 mph - N/A   Partly Cloudy
5:53 PM 73.9 °F 51.1 °F 45% 30.10 in 10.0 mi SSW 4.6 mph - N/A   Clear
6:53 PM 73.9 °F 52.0 °F 46% 30.09 in 10.0 mi WSW 8.1 mph - N/A   Clear
7:53 PM 72.0 °F 53.1 °F 51% 30.06 in 10.0 mi West 3.5 mph - N/A   Clear
8:53 PM 66.0 °F 54.0 °F 65% 30.07 in 10.0 mi NE 3.5 mph - N/A   Clear
9:53 PM 62.1 °F 52.0 °F 70% 30.08 in 10.0 mi East 3.5 mph - N/A   Clear
10:53 PM 59.0 °F 52.0 °F 78% 30.07 in 10.0 mi SE 4.6 mph - N/A   Clear
11:53 PM 57.9 °F 52.0 °F 81% 30.06 in 10.0 mi SSE 3.5 mph - N/A   Clear